sat.trackr.live / text

‹ back to catalog

STARLINK-2510

NORAD 48329 · 2021-036BF

PAYLOAD ACTIVE UNKNOWN

§ Identity

Operator
Country
US
Launch date
2021-04-29
Launch site
AFETR
Launch vehicle
Mass (kg)
RCS (m²)

Purposes: comms

External: N2YO · Heavens-Above · Gunter

§ Orbital elements

Epoch: 2026-09-19T13:51:42.468768Z

Period
94.01 min
Inclination
53.1605°
Eccentricity
0.0001586
Mean motion
15.31709222 rev/d
Perigee alt
469.6 km
Apogee alt
471.8 km
Semi-major
6,848.8 km
B*
4.7625e-5
RAAN
278.6665°
Arg perigee
66.5923°
Mean anomaly
293.5245°
Rev number
29,775

§ Raw data

STARLINK-25101 48329U 21036BF  26262.57757487  .00001113  00000+0  47625-4 0  99992 48329  53.1605 278.6665 0001586  66.5923 293.5245 15.31709222297751

JSON: /api/v1/satellites/48329 · /tle

For live sub-satellite position, see the globe view (requires WebGL).

§ Visibility from observer

Set your observer location to see the next 7 days of passes ≥ 10°. The values pass through the URL so the page stays shareable.

No JS? Fill the form by hand. The geolocation button needs JavaScript.